Total_Precipitation_Accumulation
0.52 0.37 0.28 0.28 0.27 0.26 0.29 0.36 0.66 0.99 1.35 1.65 1.91 1.93 1.76 1.51 1.33 1.34 1.40 1.40 1.32 1.20 1.09 0.93 0.84 0.84 0.83 0.83 0.78 0.73 0.75 0.79 0.85 0.79 0.74 0.78 0.79 0.69 0.59 0.53 0.47 0.47 0.45 0.41
0.42 0.36 0.35 0.41 0.39 0.41 0.44 0.50 0.67 1.02 1.47 1.66 1.63 1.44 1.40 1.36 1.29 1.43 1.58 1.64 1.57 1.40 1.22 1.05 0.92 0.86 0.84 0.83 0.74 0.67 0.70 0.81 0.87 0.85 0.82 0.83 0.86 0.81 0.71 0.63 0.55 0.48 0.44 0.41
0.59 0.45 0.57 0.88 0.70 0.64 0.65 0.66 0.78 1.10 1.24 1.18 1.22 1.23 1.26 1.28 1.37 1.58 1.73 1.69 1.55 1.41 1.27 1.15 1.08 0.98 0.92 0.86 0.77 0.74 0.76 0.79 0.83 0.85 0.88 0.86 0.83 0.80 0.75 0.68 0.61 0.54 0.45 0.44
0.58 0.70 1.18 1.14 0.70 0.62 0.66 0.65 0.62 0.71 0.72 0.81 0.97 1.12 1.25 1.35 1.50 1.69 1.79 1.81 1.73 1.54 1.39 1.23 1.08 0.99 0.90 0.80 0.77 0.80 0.82 0.79 0.75 0.73 0.74 0.69 0.68 0.72 0.70 0.67 0.61 0.56 0.48 0.44
0.75 1.02 1.24 1.08 0.66 0.57 0.72 0.83 0.58 0.54 0.55 0.62 0.75 0.94 1.33 1.48 1.58 1.72 1.77 1.72 1.65 1.52 1.43 1.32 1.16 1.02 0.92 0.85 0.79 0.78 0.77 0.72 0.64 0.57 0.58 0.57 0.60 0.62 0.60 0.60 0.57 0.51 0.44 0.42
0.84 1.21 1.57 1.33 0.62 0.38 0.62 1.14 0.73 0.47 0.43 0.55 0.77 1.08 1.25 1.27 1.36 1.39 1.35 1.26 1.23 1.20 1.18 1.12 1.02 0.90 0.89 0.86 0.76 0.70 0.66 0.58 0.53 0.48 0.50 0.51 0.53 0.58 0.56 0.52 0.46 0.40 0.38 0.38
0.91 1.23 1.43 0.75 0.41 0.45 1.07 1.35 0.91 0.67 0.60 0.67 0.90 0.99 0.87 0.85 1.00 1.08 1.12 1.06 1.00 0.97 0.99 0.97 0.87 0.83 0.84 0.79 0.72 0.58 0.50 0.49 0.49 0.50 0.51 0.49 0.50 0.54 0.50 0.43 0.41 0.39 0.39 0.38
1.04 1.37 1.50 0.60 0.45 0.80 0.94 0.69 0.67 0.67 0.69 0.73 0.72 0.64 0.61 0.65 0.83 1.04 1.16 1.12 1.03 0.95 0.87 0.79 0.77 0.82 0.84 0.75 0.56 0.46 0.45 0.48 0.51 0.48 0.44 0.43 0.49 0.51 0.44 0.43 0.43 0.45 0.44 0.38
1.07 1.24 0.93 0.50 0.48 0.47 0.44 0.45 0.45 0.47 0.50 0.57 0.64 0.63 0.60 0.68 0.81 0.97 1.05 1.06 1.00 0.87 0.76 0.64 0.63 0.70 0.73 0.59 0.41 0.38 0.43 0.51 0.51 0.45 0.51 0.49 0.45 0.43 0.40 0.41 0.38 0.36 0.37 0.34
0.90 0.89 0.65 0.47 0.38 0.32 0.33 0.37 0.38 0.41 0.45 0.56 0.75 0.78 0.74 0.75 0.85 0.92 0.94 0.85 0.77 0.72 0.65 0.55 0.50 0.48 0.46 0.37 0.34 0.39 0.46 0.48 0.47 0.48 0.57 0.55 0.45 0.31 0.29 0.30 0.28 0.28 0.30 0.32
1.13 1.03 0.79 0.52 0.38 0.36 0.34 0.38 0.45 0.52 0.55 0.62 0.68 0.74 0.77 0.76 0.75 0.74 0.70 0.65 0.60 0.60 0.56 0.44 0.39 0.36 0.30 0.26 0.30 0.38 0.41 0.44 0.44 0.48 0.50 0.50 0.41 0.26 0.18 0.16 0.13 0.16 0.21 0.23
1.43 1.14 1.01 0.76 0.57 0.54 0.52 0.52 0.53 0.52 0.50 0.54 0.53 0.53 0.59 0.61 0.60 0.55 0.53 0.53 0.53 0.50 0.46 0.39 0.35 0.33 0.28 0.22 0.25 0.35 0.40 0.37 0.33 0.34 0.34 0.32 0.34 0.28 0.15 0.07 0.05 0.05 0.07 0.11
1.11 0.89 0.80 0.74 0.65 0.62 0.57 0.46 0.41 0.38 0.34 0.39 0.43 0.41 0.42 0.42 0.42 0.41 0.40 0.41 0.42 0.37 0.33 0.34 0.31 0.28 0.25 0.23 0.21 0.26 0.34 0.34 0.26 0.21 0.22 0.22 0.25 0.31 0.29 0.16 0.07 0.05 0.05 0.07
0.76 0.72 0.69 0.54 0.40 0.33 0.26 0.25 0.26 0.28 0.27 0.26 0.28 0.29 0.29 0.28 0.29 0.30 0.32 0.33 0.30 0.26 0.24 0.25 0.26 0.23 0.20 0.20 0.19 0.21 0.23 0.20 0.18 0.19 0.17 0.17 0.17 0.19 0.23 0.29 0.27 0.21 0.11 0.08
0.46 0.47 0.40 0.26 0.18 0.17 0.16 0.18 0.24 0.26 0.24 0.25 0.23 0.22 0.21 0.22 0.24 0.25 0.26 0.25 0.24 0.23 0.22 0.21 0.22 0.19 0.15 0.14 0.14 0.18 0.19 0.18 0.15 0.13 0.11 0.10 0.10 0.11 0.15 0.20 0.24 0.25 0.22 0.15
0.27 0.25 0.22 0.18 0.17 0.16 0.17 0.18 0.23 0.22 0.20 0.21 0.22 0.20 0.18 0.18 0.17 0.19 0.21 0.20 0.22 0.24 0.24 0.20 0.18 0.14 0.10 0.10 0.12 0.12 0.10 0.08 0.08 0.09 0.08 0.07 0.07 0.10 0.13 0.18 0.21 0.22 0.24 0.23
0.25 0.22 0.18 0.18 0.17 0.17 0.17 0.17 0.18 0.16 0.16 0.16 0.16 0.14 0.12 0.13 0.15 0.18 0.17 0.16 0.17 0.19 0.18 0.17 0.13 0.09 0.08 0.07 0.09 0.08 0.07 0.05 0.05 0.07 0.06 0.06 0.06 0.07 0.08 0.12 0.17 0.21 0.17 0.17
0.23 0.21 0.17 0.18 0.16 0.17 0.15 0.14 0.15 0.13 0.11 0.09 0.08 0.08 0.09 0.11 0.14 0.15 0.13 0.13 0.12 0.12 0.12 0.11 0.09 0.07 0.06 0.06 0.06 0.05 0.06 0.05 0.06 0.06 0.06 0.05 0.05 0.06 0.06 0.07 0.10 0.16 0.16 0.15
0.21 0.20 0.15 0.14 0.13 0.14 0.13 0.12 0.11 0.09 0.08 0.07 0.06 0.06 0.07 0.10 0.11 0.11 0.10 0.12 0.14 0.13 0.11 0.08 0.07 0.07 0.06 0.05 0.05 0.05 0.04 0.05 0.06 0.05 0.05 0.04 0.05 0.06 0.06 0.06 0.07 0.11 0.13 0.15
0.16 0.18 0.15 0.11 0.10 0.11 0.11 0.10 0.08 0.07 0.07 0.06 0.05 0.06 0.07 0.08 0.08 0.08 0.09 0.11 0.12 0.09 0.08 0.08 0.08 0.06 0.05 0.04 0.04 0.04 0.04 0.03 0.05 0.06 0.05 0.05 0.05 0.05 0.04 0.04 0.04 0.07 0.10 0.12
0.13 0.15 0.11 0.09 0.11 0.12 0.12 0.10 0.09 0.07 0.06 0.05 0.05 0.06 0.07 0.07 0.06 0.06 0.06 0.08 0.08 0.06 0.06 0.05 0.05 0.05 0.04 0.04 0.04 0.04 0.04 0.04 0.04 0.04 0.05 0.05 0.04 0.04 0.04 0.04 0.05 0.06 0.07 0.10
0.14 0.16 0.12 0.10 0.14 0.14 0.13 0.12 0.09 0.07 0.06 0.06 0.05 0.05 0.06 0.06 0.05 0.05 0.04 0.04 0.04 0.05 0.07 0.06 0.04 0.03 0.03 0.04 0.04 0.04 0.04 0.04 0.03 0.03 0.03 0.03 0.03 0.03 0.03 0.04 0.05 0.05 0.06 0.08
0.19 0.16 0.12 0.12 0.13 0.15 0.13 0.10 0.08 0.08 0.07 0.06 0.06 0.06 0.06 0.04 0.04 0.04 0.04 0.02 0.02 0.03 0.05 0.06 0.05 0.04 0.03 0.03 0.03 0.04 0.04 0.04 0.03 0.03 0.03 0.03 0.03 0.03 0.03 0.03 0.04 0.04 0.05 0.06
0.23 0.19 0.15 0.12 0.13 0.15 0.13 0.09 0.07 0.07 0.07 0.06 0.06 0.06 0.05 0.04 0.04 0.03 0.02 0.03 0.03 0.02 0.02 0.03 0.05 0.04 0.03 0.02 0.02 0.03 0.04 0.03 0.02 0.02 0.02 0.02 0.02 0.03 0.02 0.02 0.02 0.03 0.04 0.04
0.28 0.23 0.17 0.15 0.17 0.17 0.13 0.09 0.07 0.07 0.06 0.07 0.05 0.05 0.04 0.03 0.03 0.02 0.03 0.03 0.04 0.04 0.03 0.02 0.02 0.04 0.04 0.02 0.02 0.03 0.03 0.02 0.02 0.02 0.02 0.02 0.02 0.01 0.02 0.02 0.03 0.03 0.03 0.04
0.35 0.31 0.24 0.20 0.18 0.15 0.11 0.10 0.09 0.08 0.09 0.08 0.06 0.04 0.04 0.03 0.02 0.02 0.03 0.03 0.04 0.04 0.03 0.02 0.01 0.02 0.03 0.02 0.02 0.02 0.02 0.02 0.02 0.02 0.02 0.02 0.02 0.01 0.01 0.02 0.03 0.03 0.03 0.03
0.41 0.36 0.31 0.21 0.15 0.12 0.12 0.13 0.11 0.09 0.08 0.08 0.08 0.06 0.04 0.03 0.02 0.02 0.03 0.03 0.03 0.03 0.03 0.02 0.02 0.02 0.01 0.01 0.02 0.02 0.02 0.02 0.02 0.02 0.02 0.01 0.01 0.02 0.03 0.03 0.04 0.04 0.04 0.04